Grand Rapids, MI

10:29 AM EDT on April 19, 2018 (GMT -0400)
Gerald R. Ford International

Weather History for KGRR - November, 2014

Change the Weather History Date:

Tuesday, November 18, 2014

  Actual Average Record
Temperature  
Mean Temperature 17 °F 39 °F  
Max Temperature 19 °F 46 °F 70 °F (1958)
Min Temperature 15 °F 32 °F 11 °F (1959)
Degree Days  
Heating Degree Days 48 26  
Month to date heating degree days 508 404  
Since 1 July heating degree days 1090 996  
Cooling Degree Days 0 0  
Month to date cooling degree days 0 0  
Year to date cooling degree days 611 699  
Moisture  
Dew Point 14 °F    
Average Humidity 83    
Maximum Humidity 92    
Minimum Humidity 73    
Precipitation  
Precipitation 0.51 in 0.12 in 1.68 in (1921)
Month to date precipitation 1.62 2.17  
Year to date precipitation 36.22 34.43  
Snow  
Snow 9.60 in 0.30 in 9.60 in (2014)
Month to date snowfall 20.5 2.8  
Since 1 July snowfall 20.5 3.3  
Since 1 September snowfall 20.5 3.3  
Snow Depth 8.00 in    
Sea Level Pressure  
Sea Level Pressure 29.90 in    
Wind  
Wind Speed 17 mph (WSW)    
Max Wind Speed 25 mph    
Max Gust Speed 32 mph    
Visibility 1 miles    
Events Fog , Snow    
T = Trace of Precipitation, MM = Missing Value Source: NWS Daily Summary

Daily Weather History Graph

Daily Weather History Graph

Search for Another Location

Airport or City:

Astronomy

Nov. 18, 2014 Rise Set
Actual Time 7:37 AM EST 5:16 PM EST
Civil Twilight 7:07 AM EST 5:46 PM EST
Nautical Twilight 6:32 AM EST 6:21 PM EST
Astronomical Twilight 5:59 AM EST 6:54 PM EST
Moon 3:29 AM EST (11/18) 3:15 PM EST (11/18)
Length of Visible Light 10h 39m
Length of Day
9h 38m
Waning Crescent, 15% of the Moon is Illuminated
Nov 18
Waning Crescent
Nov 22
New
Nov 29
First Quarter
Dec 6
Full
Dec 14
Last Quarter

Hourly Weather History & Observations

Time (EST) Temp. Windchill Dew Point Humidity Pressure Visibility Wind Dir Wind Speed Gust Speed Precip Events Conditions
12:08 AM 16.0 °F 0.6 °F 12.9 °F 88% 29.78 in 1.0 mi West 16.1 mph - 0.01 in Snow Light Snow
12:29 AM 16.0 °F 2.9 °F 12.0 °F 84% 29.78 in 0.5 mi West 11.5 mph - 0.01 in Fog , Snow Snow
12:51 AM 15.8 °F 0.9 °F 12.2 °F 86% 29.78 in 2.0 mi WSW 15.0 mph - 0.01 in Snow Light Snow
12:53 AM 16.0 °F 2.3 °F 12.0 °F 84% 29.82 in 2.0 mi WSW 12.7 mph - 0.01 in Snow Light Snow
12:59 AM 16.0 °F 2.3 °F 12.0 °F 84% 29.78 in 0.8 mi West 12.7 mph - 0.00 in Snow Light Snow
1:28 AM 15.1 °F -0.6 °F 10.9 °F 84% 29.77 in 1.8 mi WSW 16.1 mph - 0.01 in Snow Light Snow
1:34 AM 16.0 °F 0.6 °F 12.0 °F 84% 29.77 in 2.0 mi West 16.1 mph - 0.01 in Snow Light Snow
1:49 AM 15.8 °F 0.3 °F 12.2 °F 86% 29.77 in 1.8 mi WSW 16.1 mph - 0.01 in Snow Light Snow
1:53 AM 16.0 °F 0.1 °F 12.0 °F 84% 29.81 in 1.8 mi WSW 17.3 mph - 0.01 in Snow Light Snow
2:04 AM 16.0 °F -0.4 °F 12.0 °F 84% 29.77 in 0.5 mi WSW 18.4 mph - 0.00 in Fog , Snow Snow
2:24 AM 16.0 °F 1.1 °F 12.0 °F 84% 29.77 in 2.0 mi WSW 15.0 mph - 0.01 in Snow Light Snow
2:32 AM 16.0 °F 1.1 °F 12.0 °F 84% 29.77 in 3.0 mi WSW 15.0 mph - 0.01 in Snow Light Snow
2:42 AM 16.0 °F 1.1 °F 12.9 °F 88% 29.77 in 1.8 mi WSW 15.0 mph - 0.01 in Snow Light Snow
2:53 AM 17.1 °F 1.0 °F 12.9 °F 84% 29.81 in 1.8 mi WSW 18.4 mph - 0.01 in Snow Light Snow
3:11 AM 17.1 °F 0.6 °F 12.9 °F 84% 29.77 in 0.8 mi WSW 19.6 mph - 0.00 in Snow Light Snow
3:30 AM 17.1 °F 2.0 °F 12.9 °F 84% 29.77 in 0.5 mi WSW 16.1 mph - 0.01 in Fog , Snow Snow
3:53 AM 17.1 °F 2.0 °F 14.0 °F 88% 29.81 in 0.2 mi WSW 16.1 mph - 0.02 in Fog , Snow Heavy Snow
3:59 AM 17.1 °F 3.0 °F 14.0 °F 88% 29.77 in 0.8 mi West 13.8 mph - 0.00 in Snow Light Snow
4:07 AM 17.1 °F 2.5 °F 14.0 °F 88% 29.77 in 1.8 mi West 15.0 mph - 0.00 in Snow Light Snow
4:22 AM 17.1 °F 2.5 °F 12.9 °F 84% 29.78 in 1.0 mi West 15.0 mph - 0.00 in Snow Light Snow
4:30 AM 17.1 °F 2.0 °F 12.0 °F 81% 29.78 in 3.0 mi West 16.1 mph - 0.00 in Snow Light Snow
4:45 AM 17.1 °F 2.0 °F 12.0 °F 81% 29.78 in 1.8 mi West 16.1 mph - 0.00 in Snow Light Snow
4:53 AM 17.1 °F 1.5 °F 12.9 °F 84% 29.82 in 1.5 mi West 17.3 mph - 0.00 in Snow Light Snow
5:08 AM 17.1 °F 2.0 °F 14.0 °F 88% 29.78 in 0.5 mi West 16.1 mph 25.3 mph 0.00 in Fog , Snow Snow
5:17 AM 17.1 °F 0.6 °F 14.0 °F 88% 29.78 in 0.5 mi West 19.6 mph 27.6 mph 0.00 in Fog , Snow Snow
5:53 AM 17.1 °F 1.5 °F 14.0 °F 88% 29.84 in 0.5 mi West 17.3 mph - 0.01 in Fog , Snow Snow
6:53 AM 17.1 °F 0.1 °F 14.0 °F 88% 29.86 in 0.8 mi WSW 20.7 mph - 0.00 in Snow Light Snow
7:46 AM 17.1 °F -0.6 °F 14.0 °F 88% 29.83 in 0.2 mi WSW 23.0 mph - 0.01 in Snow Heavy Snow
7:53 AM 17.1 °F 0.1 °F 14.0 °F 88% 29.88 in 0.2 mi WSW 20.7 mph - 0.01 in Snow Heavy Snow
8:03 AM 17.1 °F 0.6 °F 14.0 °F 88% 29.84 in 0.5 mi WSW 19.6 mph - 0.00 in Snow Snow
8:08 AM 17.1 °F 0.6 °F 14.0 °F 88% 29.84 in 0.2 mi WSW 19.6 mph - 0.00 in Snow Heavy Snow
8:53 AM 18.0 °F 1.7 °F 14.0 °F 84% 29.90 in 0.2 mi WSW 19.6 mph - 0.00 in Snow Heavy Snow
8:57 AM 18.0 °F 2.2 °F 14.0 °F 84% 29.86 in 0.5 mi WSW 18.4 mph - 0.00 in Snow Snow
9:31 AM 18.0 °F 2.6 °F 15.1 °F 88% 29.87 in 0.2 mi WSW 17.3 mph - 0.00 in Snow Heavy Snow
9:53 AM 19.0 °F 2.4 °F 14.0 °F 81% 29.92 in 0.2 mi WSW 21.9 mph - 0.00 in Snow Heavy Snow
10:08 AM 19.0 °F 4.0 °F 15.1 °F 85% 29.88 in 0.8 mi WSW 17.3 mph - 0.00 in Snow Light Snow
10:53 AM 19.0 °F 4.0 °F 14.0 °F 81% 29.95 in 0.8 mi WSW 17.3 mph 26.5 mph 0.03 in Snow Light Snow
11:19 AM 19.0 °F 4.0 °F 15.1 °F 85% 29.91 in 0.2 mi WSW 17.3 mph - 0.01 in Snow Heavy Snow
11:28 AM 19.0 °F 2.7 °F 15.1 °F 85% 29.92 in 0.2 mi WSW 20.7 mph - 0.01 in Snow Heavy Snow
11:53 AM 19.0 °F 3.6 °F 15.1 °F 85% 29.96 in 0.2 mi WSW 18.4 mph - 0.01 in Snow Heavy Snow
12:53 PM 18.0 °F 0.6 °F 12.9 °F 81% 29.96 in 0.2 mi WSW 23.0 mph 28.8 mph 0.00 in Snow Heavy Snow
1:09 PM 18.0 °F 0.9 °F 14.0 °F 84% 29.92 in 0.2 mi WSW 21.9 mph - 0.00 in Snow Heavy Snow
1:16 PM 18.0 °F 1.3 °F 12.9 °F 81% 29.92 in 0.8 mi WSW 20.7 mph - 0.00 in Snow Light Snow
1:53 PM 18.0 °F 1.3 °F 12.9 °F 81% 29.97 in 0.8 mi WSW 20.7 mph - 0.00 in Snow Light Snow
2:01 PM 19.0 °F 2.7 °F 12.0 °F 74% 29.93 in 1.5 mi WSW 20.7 mph - 0.00 in Snow Light Snow
2:53 PM 19.0 °F 2.7 °F 12.9 °F 77% 29.98 in 1.2 mi WSW 20.7 mph - 0.00 in Snow Light Snow
3:53 PM 19.0 °F 2.7 °F 14.0 °F 81% 29.99 in 1.0 mi SW 20.7 mph 25.3 mph 0.00 in Snow Light Snow
4:07 PM 19.0 °F 4.0 °F 14.0 °F 81% 29.95 in 0.5 mi SW 17.3 mph - 0.00 in Snow Snow
4:53 PM 18.0 °F 3.6 °F 14.0 °F 84% 30.01 in 0.5 mi SW 15.0 mph - 0.00 in Fog , Snow Snow
5:31 PM 18.0 °F 3.6 °F 14.0 °F 84% 29.98 in 1.5 mi SW 15.0 mph - 0.00 in Snow Light Snow
5:53 PM 18.0 °F 3.1 °F 14.0 °F 84% 30.03 in 1.8 mi WSW 16.1 mph - 0.00 in Snow Light Snow
6:14 PM 18.0 °F 4.8 °F 15.1 °F 88% 30.00 in 0.8 mi WSW 12.7 mph - 0.00 in Snow Light Snow
6:42 PM 19.0 °F 8.2 °F 15.1 °F 85% 30.01 in 2.5 mi WSW 9.2 mph - 0.01 in Snow Light Snow
6:53 PM 18.0 °F 6.1 °F 14.0 °F 84% 30.05 in 2.5 mi WSW 10.4 mph - 0.01 in Snow Light Snow
7:13 PM 19.0 °F 6.1 °F 15.1 °F 85% 30.02 in 1.2 mi SW 12.7 mph - 0.00 in Snow Light Snow
7:53 PM 19.0 °F 5.6 °F 15.1 °F 85% 30.07 in 1.0 mi WSW 13.8 mph - 0.00 in Snow Light Snow
8:53 PM 19.0 °F 5.0 °F 15.1 °F 85% 30.07 in 1.8 mi WSW 15.0 mph - 0.01 in Snow Light Snow
9:13 PM 19.0 °F 4.5 °F 15.1 °F 85% 30.03 in 0.8 mi WSW 16.1 mph - 0.00 in Snow Light Snow
9:26 PM 18.0 °F 3.6 °F 14.0 °F 84% 30.03 in 2.0 mi WSW 15.0 mph - 0.00 in Snow Light Snow
9:46 PM 19.0 °F 6.8 °F 14.0 °F 81% 30.04 in 1.2 mi WSW 11.5 mph - 0.00 in Snow Light Snow
9:53 PM 19.0 °F 7.5 °F 15.1 °F 85% 30.08 in 1.0 mi WSW 10.4 mph - 0.00 in Snow Light Snow
10:53 PM 18.0 °F 6.1 °F 15.1 °F 88% 30.08 in 1.8 mi SW 10.4 mph - 0.01 in Snow Light Snow
11:10 PM 18.0 °F 6.1 °F 14.0 °F 84% 30.04 in 4.0 mi SW 10.4 mph - 0.02 in Snow Light Snow
11:23 PM 18.0 °F 5.4 °F 14.0 °F 84% 30.04 in 1.8 mi WSW 11.5 mph - 0.02 in Snow Light Snow
11:30 PM 18.0 °F 4.8 °F 14.0 °F 84% 30.04 in 0.8 mi WSW 12.7 mph - 0.02 in Snow Light Snow
11:36 PM 18.0 °F 5.4 °F 14.0 °F 84% 30.04 in 1.0 mi WSW 11.5 mph - 0.02 in Snow Light Snow
11:53 PM 18.0 °F 6.1 °F 14.0 °F 84% 30.08 in 1.8 mi WSW 10.4 mph - 0.02 in Snow Light Snow